#timestamp,LO_Frequency,Hit,StdDev 
1608865815.9,286046999.6,P
1608865835.7,286046998.9,P
1608865855.5,286046997.1,P
1608865875.4,286046996.6,Y
1608865895.2,286046999.1,P
1608865915.1,286046999.2,P
1608865916.0,286046999.2,P
1608865935.8,286047000.2,N
1608865955.6,286047001.2,N
1608865975.5,286046999.1,N
1608865995.3,286046999.4,N
1608866015.1,286047000.6,N
1608866035.9,286046998.3,N
1608866055.7,286046998.9,N
1608866075.6,286046996.9,Y
1608866095.4,286047000.6,P
1608866115.2,286046998.9,N
1608866135.1,286046998.4,N
1608866136.0,286046998.4,N
1608866155.8,286046999.4,N
1608866175.6,286046998.3,N
1608866195.5,286047000.9,N
1608866215.3,286046998.3,N
1608866235.2,286046998.5,N
1608866255.9,286046999.6,N
1608866275.7,286046996.9,Y
1608866295.6,286046999.5,P
1608866315.4,286046999.1,P
1608866335.2,286046999.6,N
1608866355.1,286047000.0,N
1608866356.0,286047000.0,N
1608866375.8,286047002.1,Y
1608866395.7,286047002.8,P
1608866415.5,286047000.9,N
1608866435.3,286047002.8,N
1608866455.2,286047000.1,N
1608866475.0,286047000.1,N
1608866475.9,286047000.1,N
1608866495.7,286047000.3,N
1608866515.6,286047000.3,N
1608866535.4,286047000.5,N
1608866555.3,286047000.8,N
1608866575.1,286046998.2,N
1608866576.0,286046998.2,N
1608866595.8,286047000.0,N
1608866615.7,286046999.9,N
1608866635.5,286046998.5,N
1608866655.3,286047000.1,N
1608866675.2,286047001.9,N
1608866695.0,286047000.9,N
1608866695.9,286047000.9,N
1608866715.8,286047000.6,N
1608866735.6,286047000.6,N
1608866755.4,286046998.5,N
1608866775.3,286047002.7,N
1608866795.1,286046998.9,N
1608866815.8,286046998.1,N
1608866835.7,286046998.9,N
1608866855.5,286046999.1,N
1608866875.4,286047000.4,N
1608866895.2,286046998.2,N
1608866915.0,286047000.4,N
1608866915.9,286047000.4,N
1608866935.8,286046999.9,N
1608866955.6,286046998.5,N
1608866975.4,286046998.2,N
1608866995.3,286047000.6,N
1608867015.1,286047001.2,N
1608867035.9,286047000.9,N
1608867055.7,286047001.0,N
1608867075.5,286046998.3,N
1608867095.4,286046998.2,N
1608867115.2,286046998.3,N
1608867135.0,286047002.8,N
1608867136.0,286047002.8,N
1608867155.8,286047001.4,N
1608867175.6,286047001.8,N
1608867195.5,286047002.8,N
1608867215.3,286047002.6,N
1608867235.1,286047001.6,N
1608867255.9,286047000.4,N
1608867275.7,286047002.4,N
1608867295.6,286047002.5,N
1608867315.4,286047001.2,N
1608867335.2,286046999.9,N
1608867355.1,286047000.6,N
1608867356.0,286047000.6,N
1608867375.8,286047000.5,N
1608867395.6,286046998.5,N
1608867415.5,286046998.1,N
1608867435.3,286046999.8,N
1608867455.2,286047002.6,N
1608867475.9,286047002.0,N
1608867495.7,286046999.7,N
1608867515.6,286046999.7,N
1608867535.4,286047000.8,N
1608867555.2,286046999.9,N
1608867575.1,286047000.6,N
1608867576.0,286047000.6,N
1608867595.8,286046998.1,N
1608867615.7,286046998.6,N
1608867635.5,286046999.0,N
1608867655.3,286046999.3,N
1608867675.2,286046999.1,N
1608867695.9,286046999.4,N
1608867715.7,286046998.6,N
1608867735.6,286046996.7,N
1608867755.4,286046998.4,N
1608867775.3,286047000.8,N
1608867795.1,286047000.9,N
1608867796.0,286047000.9,N
1608867815.8,286047000.3,N
1608867835.7,286046998.1,N
1608867855.5,286046998.2,N
1608867875.3,286046999.1,N
1608867895.2,286046998.6,N
1608867915.0,286046999.1,N
1608867915.9,286046999.1,N
1608867935.8,286046999.6,N
1608867955.6,286046999.0,N
1608867975.4,286046998.7,N
1608867995.3,286047000.6,N
1608868015.1,286047000.6,N
1608868035.8,286046998.8,N
1608868055.7,286046998.4,N
1608868075.5,286046998.8,N
1608868095.4,286046998.3,N
1608868115.2,286047000.1,N
1608868135.0,286047000.1,N
1608868135.9,286047000.1,N
1608868155.8,286046999.8,N
1608868175.6,286047002.8,N
1608868195.4,286047003.2,N
1608868215.3,286047001.7,N
1608868235.1,286047003.8,N
1608868255.9,286047004.0,N
1608868275.7,286047004.1,N
1608868295.5,286047004.3,N
1608868315.4,286047002.1,N
1608868335.2,286047003.1,N
1608868355.0,286047003.7,N
1608868355.9,286047003.7,N
1608868375.8,286047005.8,N
1608868395.6,286047004.1,N
1608868415.5,286047004.3,N
1608868435.3,286047001.4,N
1608868455.1,286047003.5,N
1608868475.9,286047003.6,N
1608868495.7,286047003.6,N
1608868515.5,286047005.6,N
1608868535